Torna al catalogo

METEOR 2-17 DEB

AttivoPO
NORAD 38282·DEBRIS·🇷🇺 Russia

Lanciato Jan 30, 1988 da Plesetsk Cosmodrome

Loading…

Prossimi Passaggi (prossime 24 ore)

TLE

AggiornatoSource: Space-Track

Epoca: Sep 13, 2026, 12:29 UTC

1 38282U 88005AK  26256.52077773  .00001290  00000-0  80980-3 0  9993
2 38282  82.5376 185.5859 0026016 332.2912  27.6871 14.03631968123271

Traccia METEOR 2-17 DEB in tempo reale con AllMySat

Download on the App Store